Weather History for KBWG - August, 2012

Change the Weather History Date:

Thursday, August 9, 2012

  Actual Average Record
Temperature  
Mean Temperature 82 °F 78 °F  
Max Temperature 89 °F 90 °F 110 °F (1930)
Min Temperature 74 °F 67 °F 52 °F (1989)
Degree Days  
Heating Degree Days 0 0  
Month to date heating degree days 0 0  
Since 1 June heating degree days 7 5  
Since 1 July heating degree days 0 0  
Cooling Degree Days 17 13  
Month to date cooling degree days 164 118  
Year to date cooling degree days 1497 999  
Since 1 June cooling degree days 1118 846  
Growing Degree Days 32 (Base 50)    
Moisture  
Dew Point 68 °F    
Average Humidity 63    
Maximum Humidity 82    
Minimum Humidity 43    
Precipitation  
Precipitation 0.00 in 0.10 in 2.85 in (2013)
Month to date precipitation 1.18 0.88  
Year to date precipitation 25.22 31.11  
Snow  
Snow 0.00 in 0.00 in 0.00 in ()
Month to date snowfall 0.0 0.0  
Since 1 June snowfall 0.0 0.0  
Since 1 July snowfall 0.0 0.0  
Snow Depth 0.00 in    
Sea Level Pressure  
Sea Level Pressure 29.85 in    
Wind  
Wind Speed 7 mph (South)    
Max Wind Speed 24 mph    
Max Gust Speed 30 mph    
Visibility 10 miles    
Events      
T = Trace of Precipitation, MM = Missing Value Source: NWS Daily Summary

Daily Weather History Graph

Daily Weather History Graph

Search for Another Location

Airport or City:

Trip Planner

Search our weather history database for the weather conditions in past years. The results will help you decide how hot, cold, wet, or windy it might be!

Date:

Astronomy

Aug. 09, 2012 Rise Set
Actual Time 5:57 AM CDT 7:43 PM CDT
Civil Twilight 5:29 AM CDT 8:11 PM CDT
Nautical Twilight 4:56 AM CDT 8:45 PM CDT
Astronomical Twilight 4:19 AM CDT 9:21 PM CDT
Moon 11:48 PM CDT (8/9) 1:25 PM CDT (8/9)
Length of Visible Light 14h 41m
Length of Day
13h 45m
Waning Gibbous, 51% of the Moon is Illuminated
Aug 9
Waning Gibbous
Aug 9
Last Quarter
Aug 17
New
Aug 24
First Quarter
Aug 31
Full

Hourly Weather History & Observations

Time (CDT) Temp. Heat Index Dew Point Humidity Pressure Visibility Wind Dir Wind Speed Gust Speed Precip Events Conditions
12:53 AM 79.0 °F - 68.0 °F 69% 29.91 in 10.0 mi Calm Calm - N/A   Clear
1:53 AM 78.1 °F - 69.1 °F 74% 29.89 in 10.0 mi Calm Calm - N/A   Clear
2:53 AM 75.9 °F - 69.1 °F 79% 29.89 in 10.0 mi Calm Calm - N/A   Clear
3:53 AM 75.0 °F - 68.0 °F 79% 29.88 in 10.0 mi Calm Calm - N/A   Clear
4:53 AM 77.0 °F - 68.0 °F 74% 29.88 in 10.0 mi South 3.5 mph - N/A   Clear
5:53 AM 75.0 °F - 68.0 °F 79% 29.89 in 10.0 mi Calm Calm - N/A   Clear
6:53 AM 77.0 °F - 69.1 °F 76% 29.90 in 10.0 mi SSW 3.5 mph - N/A   Clear
7:53 AM 80.1 °F 83.2 °F 70.0 °F 71% 29.89 in 10.0 mi SW 4.6 mph - N/A   Clear
8:53 AM 82.0 °F 86.3 °F 71.1 °F 69% 29.91 in 10.0 mi SW 13.8 mph - N/A   Clear
9:53 AM 82.9 °F 85.0 °F 66.0 °F 56% 29.91 in 10.0 mi SW 9.2 mph - N/A   Partly Cloudy
10:53 AM 77.0 °F - 64.0 °F 64% 29.96 in 10.0 mi SW 19.6 mph 28.8 mph N/A   Mostly Cloudy
11:53 AM 75.9 °F - 64.9 °F 69% 29.88 in 10.0 mi SSW 9.2 mph - N/A   Clear
12:53 PM 84.0 °F 86.3 °F 66.0 °F 55% 29.86 in 10.0 mi East 5.8 mph - N/A   Clear
1:53 PM 87.1 °F 88.3 °F 64.0 °F 46% 29.85 in 10.0 mi SSE 9.2 mph - N/A   Clear
2:53 PM 88.0 °F 88.4 °F 62.1 °F 42% 29.83 in 10.0 mi SSW 10.4 mph - N/A   Clear
3:53 PM 89.1 °F 92.1 °F 66.9 °F 48% 29.81 in 10.0 mi South 10.4 mph 16.1 mph N/A   Clear
4:53 PM 86.0 °F 89.4 °F 68.0 °F 55% 29.80 in 10.0 mi South 10.4 mph - N/A   Clear
5:53 PM 84.0 °F 86.5 °F 66.9 °F 56% 29.79 in 10.0 mi SSE 9.2 mph - N/A   Clear
6:53 PM 82.9 °F 85.8 °F 68.0 °F 60% 29.78 in 10.0 mi SSE 9.2 mph - N/A   Clear
7:53 PM 81.0 °F 83.8 °F 68.0 °F 65% 29.78 in 10.0 mi South 8.1 mph - N/A   Clear
8:53 PM 79.0 °F - 69.1 °F 72% 29.81 in 10.0 mi SSE 8.1 mph - N/A   Clear
9:53 PM 77.0 °F - 70.0 °F 79% 29.80 in 10.0 mi South 6.9 mph - N/A   Scattered Clouds
10:53 PM 75.9 °F - 70.0 °F 82% 29.78 in 10.0 mi SSE 3.5 mph - N/A   Scattered Clouds
11:53 PM 75.9 °F - 69.1 °F 79% 29.77 in 10.0 mi South 6.9 mph - N/A   Partly Cloudy